This is the latest recevied weather packets stored in our database for station/object AE5TC. If no packets are shown the sender has not sent any weather packets the latest 10 day(s).
| Time | Temp. | Humidity | Pressure | Rain* | Wind** | Luminosity | Snow |
|---|---|---|---|---|---|---|---|
| 1777556612 | 25° C | 94% | 1010.8 hPa | 0 mm | - | 150 W/m² | - |
| 1777556307 | 25° C | 95% | 1010.9 hPa | 0 mm | - | 141 W/m² | - |
| 1777556003 | 25° C | 96% | 1010.8 hPa | 0 mm | - | 129 W/m² | - |
| 1777555699 | 25° C | 96% | 1010.7 hPa | 0 mm | - | 113 W/m² | - |
| 1777555395 | 24.44° C | 97% | 1010.7 hPa | 0 mm | - | 117 W/m² | - |
| 1777555091 | 24.44° C | 97% | 1010.7 hPa | 0 mm | - | 102 W/m² | - |
| 1777554789 | 24.44° C | 97% | 1010.6 hPa | 0 mm | - | 58 W/m² | - |
| 1777554486 | 24.44° C | 97% | 1010.6 hPa | 0 mm | - | 57 W/m² | - |
| 1777554183 | 24.44° C | 97% | 1010.4 hPa | 0 mm | - | 87 W/m² | - |
| 1777553880 | 24.44° C | 98% | 1010.7 hPa | 0 mm | - | 97 W/m² | - |
| 1777553576 | 23.89° C | 98% | 1010.6 hPa | 0 mm | - | 90 W/m² | - |
| 1777553270 | 23.89° C | 99% | 1010.5 hPa | 0 mm | - | 57 W/m² | - |
| 1777552968 | 23.89° C | 99% | 1010.4 hPa | 0 mm | - | 49 W/m² | - |
| 1777552662 | 23.89° C | 99% | 1010.5 hPa | 0 mm | - | 41 W/m² | - |
| 1777552360 | 23.89° C | 99% | 1010.4 hPa | 0 mm | - | 35 W/m² | - |
| 1777552056 | 23.89° C | 99% | 1010.3 hPa | 0 mm | - | 26 W/m² | - |
| 1777551753 | 24.44° C | 99% | 1010.4 hPa | 0 mm | - | 32 W/m² | - |
| 1777551451 | 24.44° C | 99% | 1010.5 hPa | 0 mm | - | 49 W/m² | - |
| 1777551147 | 24.44° C | 99% | 1010.2 hPa | 0 mm | - | 55 W/m² | - |
| 1777550845 | 24.44° C | 99% | 1010.5 hPa | 0 mm | - | 43 W/m² | - |
| 1777550541 | 24.44° C | 99% | 1010.5 hPa | 0 mm | - | 46 W/m² | - |
| 1777550237 | 23.89° C | 99% | 1010.4 hPa | 0 mm | - | 48 W/m² | - |
| 1777549934 | 23.89° C | 99% | 1010.5 hPa | 0 mm | - | 34 W/m² | - |
| 1777549630 | 23.89° C | 99% | 1010.4 hPa | 0 mm | - | 48 W/m² | - |
| 1777549325 | 23.89° C | 99% | 1010.2 hPa | 0 mm | - | 53 W/m² | - |
* Rain latest hour (hover to see other rain measurements)
** Current wind speed in m/s (hover to see current wind gust speed)